Retour au catalogue

BREEZE-M DEB

ActifHEO
NORAD 32032·DEBRIS·🇷🇺 Russia

Lancé Feb 28, 2006 depuis Baikonur Cosmodrome

Loading…

Prochains Passages (prochaines 24 heures)

TLE

FraisSource: Space-Track

Époque: Sep 14, 2026, 05:22 UTC

1 32032U 06006K   26257.22421090  .00000044  00000-0  82585-4 0  9994
2 32032  51.3666 232.0227 4485007 210.7461 112.9753  6.19864542406302

Suivez BREEZE-M DEB en temps réel avec AllMySat

Download on the App Store